Location: ?p Thanh B�nh
(16.5833°N, 107.5333°E)
Time: 05:24:05
(UTC+00:00)

ATLAS CENTAUR R/B - Pass Details

Date: 29 October 2020
Orbit: 478 x 667 km, 64.7° (Epoch: 22 November)

Event Time Altitude Azimuth Distance (km) Brightness Sun altitude
Exits shadow 20:40:09 27° 110° (ESE) 1,069 3.3 -30.7°
Drops below altitude 10° 20:43:28 10° 53° (NE) 1,767 4.4 -29.9°
Sets 20:45:48 0° 41° (NE) 2,625 5.2 -29.3°
